Probability
0 0 0 0 0 0 0 0 0 0 0 0 0 0 0 0 0 0 0 0 0 0 0 0 0 3 3 3 3 3 6 6 6 6 16 16 19 29
0 0 0 0 0 0 0 0 0 0 0 0 0 0 0 0 0 0 0 0 0 0 0 0 0 0 0 0 3 3 3 3 3 3 0 0 6 6
0 0 0 0 0 0 0 0 0 0 0 0 0 0 0 0 0 0 0 0 0 0 0 0 0 0 0 0 0 0 0 0 0 0 0 0 0 0
0 0 0 0 0 0 0 0 0 0 0 0 0 0 0 0 0 0 0 0 0 0 0 0 0 0 0 0 0 0 0 0 0 0 0 0 0 0
0 0 0 0 0 0 0 0 0 0 0 0 0 0 0 0 0 0 0 0 0 0 0 0 0 0 0 0 0 0 0 0 0 0 0 0 0 0
0 0 0 0 0 0 0 0 0 0 0 0 0 0 0 0 0 0 0 0 0 0 0 0 0 0 0 0 0 0 0 0 0 0 0 0 0 0
0 0 0 0 0 0 0 0 0 0 0 0 0 0 0 0 0 0 0 0 0 0 0 0 0 0 0 0 0 0 0 0 0 0 0 0 0 0
0 0 0 0 0 0 0 0 0 0 0 0 0 0 0 0 0 0 0 0 0 0 0 0 0 0 0 0 0 0 0 0 0 0 0 0 0 0
0 0 0 0 0 0 0 0 0 0 0 0 0 0 0 0 0 0 0 0 0 0 0 0 0 0 0 0 0 0 0 0 0 0 0 0 0 0
0 0 0 0 0 0 0 0 0 0 0 0 0 0 0 0 0 0 0 0 0 0 0 0 0 0 0 0 0 0 0 0 0 0 0 0 0 0
0 0 0 0 0 0 0 0 0 0 0 0 0 0 0 0 0 0 0 0 0 0 0 0 0 0 0 0 0 0 0 0 0 0 0 0 0 0
0 0 0 0 0 0 0 0 0 0 0 0 0 0 0 0 0 0 0 0 0 0 0 0 0 0 0 0 0 0 0 0 0 0 0 0 0 0
0 0 0 0 0 0 0 0 0 0 0 0 0 0 0 0 0 0 0 0 0 0 0 0 0 0 0 0 0 0 0 0 0 0 0 0 0 0
0 0 0 0 0 0 0 0 0 0 0 0 0 0 0 0 0 0 0 0 0 0 0 0 0 0 0 0 0 0 0 0 0 0 0 0 0 0
0 0 0 0 0 0 0 0 0 0 0 0 0 0 0 0 0 0 0 0 0 0 0 0 0 0 0 0 0 0 0 0 0 0 0 0 0 0
0 0 0 0 0 0 0 0 0 0 0 0 0 0 0 0 0 0 0 0 0 0 0 0 0 0 0 0 0 0 0 0 0 0 0 0 0 0
0 0 0 0 0 0 0 0 0 0 0 0 0 0 0 0 0 0 0 0 0 0 0 0 0 0 0 0 0 0 0 0 0 0 0 0 0 0
0 0 0 0 0 0 0 0 0 0 0 0 0 0 0 0 0 0 0 0 0 0 0 0 0 0 0 0 0 0 0 0 0 0 0 0 0 0
0 0 0 0 0 0 0 0 0 0 0 0 0 0 0 0 0 0 0 0 0 0 0 0 0 0 0 0 0 0 0 0 0 0 0 0 0 0
0 0 0 0 0 0 0 0 0 0 0 0 0 0 0 0 0 0 0 0 0 0 0 0 0 0 0 0 0 0 0 0 0 0 0 0 0 0
0 0 0 0 0 0 0 0 0 0 0 0 0 0 0 0 0 0 0 0 0 0 0 0 0 0 0 0 0 0 0 0 0 0 0 0 0 0
0 0 0 0 0 0 0 0 0 0 0 0 0 0 0 0 0 0 0 0 0 0 0 0 0 0 0 0 0 0 0 0 0 0 0 0 0 0
0 0 0 0 0 0 0 0 0 0 0 0 0 0 0 0 0 0 0 0 0 0 0 0 0 0 0 0 0 0 0 0 0 0 0 0 0 0
Height
5751 5754 5757 5761 5764 5767 5771 5774 5778 5781 5783 5784 5786 5788 5789 5790 5790 5790 5790 5789 5789 5790 5790 5792 5793 5795 5797 5798 5800 5803 5805 5808 5812 5815 5819 5822 5826 5830
5736 5740 5744 5748 5752 5756 5759 5763 5767 5771 5774 5776 5778 5780 5782 5783 5783 5783 5783 5783 5783 5784 5784 5786 5787 5789 5790 5792 5793 5796 5798 5801 5804 5808 5811 5815 5818 5822
5720 5724 5729 5733 5738 5742 5747 5751 5756 5760 5764 5767 5769 5772 5774 5775 5776 5777 5777 5777 5777 5777 5778 5780 5781 5783 5784 5786 5787 5789 5791 5794 5797 5801 5804 5808 5811 5815
5701 5707 5712 5718 5723 5728 5733 5738 5743 5749 5753 5757 5760 5763 5765 5767 5769 5770 5770 5771 5771 5771 5772 5774 5775 5777 5778 5779 5781 5783 5785 5788 5791 5794 5797 5800 5804 5807
5681 5688 5694 5700 5707 5712 5718 5724 5730 5736 5741 5746 5750 5754 5757 5759 5761 5762 5763 5764 5765 5765 5766 5768 5769 5771 5772 5773 5775 5777 5779 5782 5784 5787 5790 5793 5796 5799
5660 5667 5675 5682 5689 5696 5703 5710 5716 5723 5729 5735 5740 5744 5747 5750 5753 5755 5756 5757 5758 5759 5760 5762 5763 5764 5766 5768 5770 5772 5774 5776 5778 5781 5783 5786 5789 5792
5639 5646 5654 5662 5671 5679 5687 5695 5702 5709 5716 5723 5729 5734 5738 5742 5745 5747 5749 5750 5752 5753 5755 5756 5757 5759 5760 5762 5764 5766 5768 5770 5773 5775 5777 5780 5783 5785
5618 5625 5633 5642 5652 5661 5670 5679 5687 5695 5703 5711 5717 5723 5729 5733 5736 5738 5741 5743 5745 5747 5749 5750 5752 5753 5755 5757 5758 5761 5763 5765 5767 5769 5772 5774 5776 5779
5598 5605 5614 5623 5632 5643 5653 5663 5673 5682 5690 5699 5706 5713 5718 5723 5727 5730 5733 5736 5738 5740 5742 5744 5746 5748 5750 5751 5753 5755 5757 5760 5762 5764 5766 5768 5771 5773
5581 5588 5596 5604 5614 5625 5636 5647 5658 5668 5678 5686 5695 5702 5708 5713 5717 5722 5725 5728 5731 5733 5736 5738 5740 5742 5744 5746 5747 5750 5752 5754 5756 5759 5761 5763 5765 5767
5568 5573 5580 5589 5598 5609 5620 5633 5644 5654 5664 5673 5682 5690 5697 5703 5708 5713 5717 5721 5724 5727 5729 5732 5734 5735 5738 5740 5742 5744 5746 5749 5751 5753 5755 5758 5760 5762
5557 5562 5568 5575 5583 5593 5605 5617 5630 5641 5651 5661 5670 5678 5686 5693 5699 5705 5710 5714 5717 5720 5723 5725 5727 5730 5732 5734 5736 5739 5741 5743 5745 5748 5750 5753 5755 5757
5547 5551 5556 5562 5570 5580 5592 5604 5616 5627 5638 5649 5659 5668 5676 5684 5690 5696 5702 5707 5711 5714 5717 5719 5722 5724 5727 5729 5731 5733 5736 5738 5740 5743 5745 5747 5750 5752
5539 5542 5547 5552 5559 5568 5579 5591 5603 5615 5627 5638 5648 5658 5667 5675 5682 5689 5694 5699 5703 5707 5711 5713 5716 5719 5721 5724 5726 5728 5731 5733 5735 5738 5740 5742 5745 5747
5530 5533 5538 5543 5549 5558 5569 5580 5592 5604 5616 5628 5639 5649 5658 5667 5674 5680 5686 5691 5696 5700 5704 5707 5710 5713 5716 5718 5721 5723 5726 5728 5730 5733 5735 5738 5740 5742
5522 5525 5529 5535 5541 5549 5559 5570 5582 5594 5607 5618 5629 5640 5649 5658 5666 5673 5680 5685 5690 5694 5698 5701 5704 5707 5710 5713 5716 5718 5721 5723 5726 5729 5731 5734 5736 5738
5514 5518 5522 5527 5533 5541 5551 5562 5574 5586 5598 5609 5621 5631 5641 5650 5659 5666 5673 5679 5684 5688 5692 5695 5698 5702 5705 5708 5711 5714 5717 5719 5722 5725 5727 5729 5731 5733
5509 5512 5516 5520 5527 5534 5544 5555 5568 5580 5591 5603 5614 5625 5635 5644 5653 5660 5667 5673 5678 5683 5687 5690 5694 5697 5701 5704 5707 5710 5713 5715 5718 5720 5723 5725 5726 5728
5504 5507 5511 5515 5521 5529 5539 5551 5563 5575 5586 5598 5609 5619 5630 5639 5647 5655 5661 5667 5672 5677 5682 5685 5689 5693 5696 5700 5703 5706 5709 5711 5714 5716 5718 5720 5721 5723
5499 5503 5507 5512 5518 5526 5536 5547 5559 5571 5583 5594 5605 5615 5625 5634 5642 5650 5656 5662 5668 5672 5677 5681 5684 5688 5692 5696 5699 5702 5704 5707 5709 5711 5713 5714 5716 5717
5497 5501 5506 5511 5518 5526 5535 5546 5558 5569 5581 5592 5603 5613 5622 5630 5638 5645 5652 5658 5663 5668 5672 5677 5680 5685 5688 5692 5695 5697 5700 5702 5704 5706 5708 5709 5710 5710
5497 5502 5507 5513 5521 5529 5538 5548 5559 5570 5581 5592 5602 5611 5620 5628 5635 5642 5648 5654 5659 5663 5668 5673 5676 5680 5684 5687 5690 5693 5695 5697 5699 5700 5702 5703 5703 5703
5500 5505 5511 5518 5526 5534 5544 5553 5564 5573 5583 5592 5601 5610 5618 5626 5633 5639 5644 5650 5655 5660 5665 5669 5673 5677 5680 5683 5686 5689 5691 5692 5693 5695 5695 5695 5695 5695
Wind_Speed
46 45 43 42 41 40 39 37 35 33 31 30 28 25 23 21 20 20 20 20 21 21 22 23 23 24 25 26 28 29 30 31 33 34 35 35 35 35
52 51 49 47 46 44 42 40 39 36 33 32 31 28 25 23 22 21 21 21 21 21 22 23 23 23 23 25 27 29 29 30 31 32 33 33 34 34
56 55 53 52 50 49 47 44 42 39 36 33 33 31 28 25 23 22 21 21 21 21 22 22 23 23 23 24 26 28 29 30 30 31 31 33 33 33
61 59 57 56 54 52 50 48 45 42 39 36 34 32 30 27 25 23 22 21 21 21 22 22 23 23 24 24 24 26 27 28 29 30 31 32 33 33
63 63 61 59 57 55 52 50 48 45 42 39 36 34 31 29 26 24 23 21 21 22 22 23 23 23 24 24 24 24 25 25 27 28 31 31 32 32
65 64 63 62 60 58 56 53 50 48 45 42 38 36 33 30 27 26 24 23 22 22 22 22 23 22 22 23 24 24 24 24 25 26 28 30 31 31
67 66 65 64 62 60 58 55 53 50 47 44 41 38 35 32 29 27 25 23 23 22 22 22 23 23 22 22 23 24 25 24 24 24 26 27 28 29
67 66 65 64 63 62 59 57 55 51 48 46 42 39 36 33 30 28 26 25 24 23 23 22 23 23 22 22 22 24 24 24 25 25 25 25 25 26
61 64 65 64 63 63 61 58 56 53 50 47 43 40 37 34 32 29 27 26 25 24 24 23 22 23 23 22 22 22 23 24 24 24 24 24 24 25
49 55 60 61 61 61 61 59 56 54 51 48 44 41 39 36 33 30 28 27 25 24 23 24 23 23 23 23 23 23 23 23 23 24 24 24 24 24
39 45 51 55 58 59 59 59 57 54 52 49 46 44 41 37 34 31 29 27 25 24 24 24 24 24 24 23 23 23 23 23 23 23 24 24 23 23
33 37 41 47 53 55 57 57 57 54 52 50 48 45 41 38 35 32 30 28 26 25 24 23 23 23 23 22 22 22 23 23 23 23 22 23 23 22
30 32 35 40 46 50 52 54 55 54 53 50 48 45 43 39 36 33 31 29 27 25 24 23 23 23 22 22 22 22 23 23 23 23 23 23 22 22
28 30 32 35 40 46 49 51 52 53 52 51 48 45 43 40 37 34 32 31 29 27 25 24 23 23 23 22 22 22 22 23 23 23 23 22 21 20
27 28 30 33 36 42 46 49 50 51 50 50 48 45 43 40 38 35 33 31 29 28 26 25 24 24 23 23 22 22 22 22 22 21 20 20 19 19
25 26 28 31 34 39 43 47 48 49 49 48 47 45 43 41 39 36 34 31 29 28 27 26 25 24 23 22 22 22 20 20 20 19 19 18 18 19
22 24 26 28 31 36 42 46 47 47 48 47 46 45 43 41 39 36 34 31 30 28 27 26 25 23 23 22 22 21 20 19 19 19 19 19 19 19
20 22 24 28 30 33 39 45 46 46 46 45 44 43 42 40 38 36 34 31 30 28 27 25 24 23 23 22 21 20 20 19 19 19 19 19 19 19
18 20 22 25 28 33 38 44 46 46 46 44 43 42 41 39 38 36 34 32 30 29 27 26 24 24 23 23 22 21 20 20 20 20 19 19 19 20
17 19 21 23 27 32 39 44 45 45 44 43 42 41 40 38 37 35 33 32 31 29 27 26 25 24 24 23 23 22 22 21 20 20 20 20 21 22
16 18 20 23 29 33 37 42 44 45 44 43 41 39 38 37 35 34 32 30 29 28 27 26 25 24 24 23 22 22 22 21 20 20 21 21 22 24
15 17 22 27 31 34 39 41 43 43 41 41 39 38 37 36 34 32 30 29 28 28 27 26 25 24 23 23 22 22 21 21 21 21 22 23 25 26
17 21 26 31 33 37 39 39 40 40 39 37 36 36 35 34 33 31 30 29 28 27 26 25 25 24 23 22 22 22 22 22 22 23 25 26 27 29
Wind_Direction
248 247 246 246 245 244 243 243 244 246 250 255 259 262 265 269 273 277 280 280 275 268 261 256 255 254 252 250 249 246 245 242 239 238 238 238 238 240
246 246 246 246 245 244 244 243 243 244 246 251 256 259 262 265 269 274 277 278 274 267 261 256 253 253 255 253 248 246 247 244 241 240 238 238 238 240
244 244 244 245 245 245 244 243 242 242 243 245 251 255 259 261 264 270 273 275 272 267 261 256 253 254 255 254 248 246 247 243 241 240 238 237 237 238
243 242 242 242 242 242 243 242 242 242 242 242 246 251 255 258 261 265 270 272 269 265 260 257 254 254 254 253 249 247 246 243 241 239 239 238 237 237
242 241 240 239 240 240 241 241 241 241 240 240 243 247 251 254 258 261 266 268 266 262 259 257 255 254 253 251 248 246 244 241 240 239 238 236 235 236
241 240 239 238 238 238 239 239 239 239 239 239 240 243 247 250 254 258 261 263 263 260 257 256 254 253 252 250 247 245 243 241 239 238 236 235 235 237
241 240 238 237 236 236 236 236 236 236 237 237 238 240 243 246 249 253 256 258 258 256 255 254 251 252 250 249 249 246 243 241 240 239 236 235 235 236
241 239 238 236 235 233 233 233 234 234 234 235 235 237 239 242 245 248 251 253 252 253 253 253 253 250 248 248 248 246 243 240 240 239 236 235 235 237
241 239 237 235 233 231 230 230 231 231 232 232 232 233 235 238 241 243 246 247 247 250 252 251 250 247 246 247 247 245 242 241 240 239 238 239 239 240
241 238 236 234 232 230 229 228 228 228 228 228 229 230 231 234 237 239 241 244 245 248 249 249 247 245 245 246 245 243 240 240 239 238 240 241 241 242
242 238 235 233 231 228 227 226 225 225 225 225 226 227 229 231 233 235 238 240 242 244 246 247 245 244 245 245 242 242 240 239 240 241 241 239 239 240
242 238 235 232 229 227 225 223 223 222 222 222 223 224 226 228 229 231 233 235 237 239 243 244 242 243 243 241 241 240 239 239 238 237 238 238 238 240
243 239 235 232 227 224 222 220 220 219 219 219 220 221 222 223 225 227 230 232 234 236 239 241 240 240 239 239 239 240 238 236 235 236 238 237 237 238
243 240 236 231 225 222 219 216 215 216 216 217 217 218 219 219 221 223 226 229 231 233 235 237 238 237 236 238 239 239 236 237 237 236 234 233 234 236
241 238 234 230 224 218 216 213 212 212 212 213 213 215 215 216 218 221 224 226 228 229 231 234 235 234 235 237 237 236 235 234 232 229 226 227 231 236
239 235 232 225 221 216 212 208 208 208 207 208 210 212 212 214 215 218 221 222 224 228 230 231 232 232 233 235 234 232 229 229 226 224 226 229 234 239
237 232 226 221 216 210 207 204 203 203 202 204 206 208 210 211 212 215 217 219 223 226 228 228 229 229 230 229 226 225 225 224 224 226 229 233 236 241
232 229 224 217 210 204 200 197 196 197 199 199 202 204 205 207 208 212 215 218 220 223 225 226 226 226 225 222 221 221 220 221 224 227 231 235 240 242
228 221 213 205 200 195 192 190 191 192 194 196 198 200 201 203 205 209 213 215 218 220 223 222 222 220 218 216 217 217 219 222 226 230 234 238 242 246
216 208 197 192 189 187 185 184 186 187 189 191 193 195 197 200 202 205 209 213 216 217 219 219 218 215 214 217 220 222 224 226 229 233 237 242 247 252
199 196 192 185 178 177 180 179 180 182 183 186 188 190 192 195 199 203 206 209 212 214 215 214 214 215 217 219 223 226 227 228 233 238 244 249 254 260
185 184 178 172 170 170 170 171 174 177 180 182 184 187 190 193 197 201 204 207 209 210 210 211 213 214 217 220 223 225 228 233 239 245 251 257 262 267
159 158 158 159 161 163 164 167 171 175 177 178 182 186 190 193 196 199 202 205 206 205 207 209 211 214 217 220 224 229 234 241 247 253 259 265 269 272